Find Starlink 37525

NORAD ID: 69462 Int'l Des: 2026-127 Owner: SPXS Country: US Constellation: starlink operational
LEOCIRCULAR

現在のビュー

3D地球を読み込み中...

About Starlink 37525

Starlink 37525 (NORAD 69462) is a starlink constellation satellite launched Jun 8, 2026 by SPXS of US. It operates in LEO, CIRCULAR orbit with a mass of 575.00 kg.

次回通過

Passes for default location (London). Set your location on the main map for personalized predictions.

高度履歴

Loading altitude history...

軌道要素

1 69462U 26127V 26206.00002315 .00061737 00000-0 11110-2 0 9992
2 69462 53.1597 75.1740 0001013 82.3906 329.3643 15.49265013 6019
Epoch: Jul 25, 2026 • Age: 33 hours

現在のステータス

高度 418.9 km
遠地点 / 近地点 N/A
速度 7.66 km/s
衛星直下点 23.97°N, 151.2°E
打ち上げ日 Jun 8, 2026
運用期間 0.1 years
タイプ internet

技術仕様

分類 Payload
質量 575.00 kg
乾燥質量 530.00 kg
総質量 575.00 kg
長さ 0.30 m
直径 4.10 m
スパン 29.00 m
形状 Box + pan
製造者 SPXS
バスタイプ Starlink V2MO
フェーズステータス In Orbit
所有者/国 SPXS/US

Most Searched